Home > Weather > Antsiranana > Past weeks

Flag for Madagascar Weather for the Past 2 Weeks in Antsiranana, Madagascar

Now
81 °F

Warm.


Feels Like: 85 °F
Forecast: 78 / 87 °F
Wind: 6 mph from West

Location: Dzaoudzi / Pamanzi Mayotte

Current Time: Feb 12, 2016 at 4:48:57 AM

Latest Report: Feb 12, 2016 at 4:00 AM


Visibility: N/A

Pressure: 29.80 "Hg

Humidity: 79%

Dew point: 73 °F

Location of AntsirananaLocation

Historic Weather in Antsiranana — Graph

°F

Antsiranana Temperature Yesterday

Maximum temperature yesterday: 91 °F (at 2:30 PM)
Minimum temperature yesterday: 77 °F (at 6:04 AM)
Average temperature yesterday: 85 °F

High & Low Weather Summary for the Past Weeks

 TemperatureHumidityPressure
High91 °F (Feb 11, 2:30 PM)94% (Feb 2, 7:30 AM)29.89 "Hg (Feb 2, 7:30 AM)
Low75 °F (Feb 3, 7:00 PM)52% (Feb 11, 2:30 PM)29.71 "Hg (Feb 1, 3:30 AM)
Average82 °F79%29.81 "Hg
* Reported Jan 28 3:00 AM — Feb 12 3:30 AM, Antsiranana, Weather by CustomWeather, © 2016

Note: Actual official high and low records may vary slightly from our data, if they occured in-between our weather recording intervals... More about our weather records

Advertising

Antsiranana Weather History for the Previous 24 Hours

 ConditionsComfort  
Time TempWeatherWind HumidityBarometerVisibility
3:30 AM
Fri, Feb 12
81 °FWarm.6 mph79%29.80 "HgN/A
3:00 AM81 °FWarm.7 mph79%29.80 "HgN/A
2:30 AM81 °FWarm.7 mph84%29.80 "HgN/A
2:00 AM81 °FWarm.5 mph84%29.80 "HgN/A
12:30 AM82 °FWarm.5 mph79%29.83 "HgN/A
12:00 AM82 °FWarm.6 mph79%29.83 "HgN/A
11:30 PM
Thu, Feb 11
82 °FPassing clouds.12 mph79%29.83 "HgN/A
11:00 PM82 °FWarm.8 mph79%29.83 "HgN/A
10:30 PM82 °FWarm.8 mph79%29.83 "HgN/A
10:00 PM82 °FWarm.7 mph79%29.83 "HgN/A
9:30 PM82 °FWarm.6 mph79%29.83 "HgN/A
9:00 PM82 °FWarm.5 mph74%29.83 "HgN/A
8:30 PM82 °FWarm.7 mph79%29.83 "HgN/A
8:00 PM84 °FWarm.9 mph74%29.80 "HgN/A
7:30 PM84 °FPassing clouds.9 mph74%29.80 "HgN/A
7:00 PM84 °FWarm.8 mph70%29.80 "HgN/A
6:30 PM84 °FWarm.12 mph70%29.80 "HgN/A
6:00 PM86 °FPassing clouds.12 mph66%29.77 "HgN/A
5:30 PM88 °FPassing clouds.12 mph59%29.77 "HgN/A
5:00 PM90 °FPassing clouds.13 mph55%29.77 "HgN/A
4:30 PM90 °FPassing clouds.13 mph55%29.77 "HgN/A
4:00 PM90 °FPassing clouds.13 mph52%29.77 "HgN/A
3:30 PM90 °FPassing clouds.15 mph52%29.77 "HgN/A
3:00 PM90 °FPassing clouds.13 mph55%29.77 "HgN/A
2:30 PM91 °FPassing clouds.14 mph52%29.77 "HgN/A
2:00 PM90 °FPassing clouds.12 mph55%29.77 "HgN/A
1:30 PM90 °FPassing clouds.14 mph55%29.77 "HgN/A
1:00 PM90 °FPassing clouds.16 mph55%29.80 "HgN/A
12:30 PM90 °FPassing clouds.14 mph55%29.80 "HgN/A
12:00 PM90 °FPassing clouds.12 mph55%29.80 "HgN/A
11:30 AM90 °FPassing clouds.12 mph55%29.83 "HgN/A
11:00 AM90 °FPassing clouds.12 mph55%29.83 "HgN/A
10:00 AM88 °FPassing clouds.9 mph59%29.83 "HgN/A
9:30 AM88 °FPassing clouds.9 mph59%29.83 "HgN/A
9:00 AM86 °FPassing clouds.10 mph62%29.83 "HgN/A
8:41 AM86 °FPassing clouds.7 mph62%29.83 "HgN/A
8:00 AM84 °FPassing clouds.7 mph70%29.83 "HgN/A
7:30 AM82 °FPassing clouds.8 mph74%29.83 "HgN/A
7:00 AM82 °FPassing clouds.8 mph74%29.83 "HgN/A
6:30 AM81 °FPassing clouds.10 mph79%29.83 "HgN/A
6:04 AM77 °FPassing clouds.3 mph83%29.80 "HgN/A
5:30 AM79 °FPassing clouds.3 mph84%29.80 "HgN/A
5:00 AM79 °FPassing clouds.No wind84%29.80 "HgN/A
4:30 AM79 °FPassing clouds.3 mph84%29.77 "HgN/A
4:00 AM79 °FPassing clouds.5 mph84%29.77 "HgN/A
Weather by CustomWeather, © 2016

See weather overviewHow to use our weather pages